Regional Weather Roundup
Issued by NWS

Home | Current Version | Previous Version | Text Only | Print | Product List | Glossary On
Versions: 1 2 3 4 5 6 7 8 9 10 11 12 13 14 15 16 17 18 19 20 21 22 23 24 25 26 27 28
000
ASUS46 KPQR 182310
RWROR

OREGON REGIONAL WEATHER ROUNDUP
NATIONAL WEATHER SERVICE PORTLAND OR
400 PM PDT FRI AUG 18 2017

NOTE: "FAIR" INDICATES FEW OR NO CLOUDS BELOW 12,000 FEET WITH
NO SIGNIFICANT WEATHER AND/OR OBSTRUCTIONS TO VISIBILITY.

ORZ001>013-190000-
NORTHWEST OREGON


CITY           SKY/WX    TMP DP  RH WIND       PRES   REMARKS
ASTORIA        CLOUDY    68  59  73 NW8       30.20F
NEWPORT        SUNNY     63  55  77 N15G24    30.21F
PORTLAND       MOSUNNY   80  56  43 NW9       30.12F
VANCOUVER WA   MOSUNNY   82  58  43 VRB6      30.11F
SCAPPOOSE      MOSUNNY   79  54  41 W12       30.12F
HILLSBORO      MOSUNNY   82  54  37 NW13      30.11F
AURORA         MOSUNNY   84  51  31 VRB5      30.12F
MCMINNVILLE    SUNNY     85  54  34 VRB6      30.11F
SALEM          SUNNY     84  52  33 NE6       30.10F
CORVALLIS      SUNNY     88  52  29 NE3       30.12F
EUGENE         MOSUNNY   86  51  29 NE9G21    30.10F
$$

ORZ021-028-190000-
SOUTHWEST OREGON


CITY           SKY/WX    TMP DP  RH WIND       PRES   REMARKS
NORTH BEND     SUNNY     65  56  72 N23G29    30.16F
BROOKINGS      SUNNY     70  57  63 S6        29.99F
ROSEBURG       SUNNY     92  47  21 N15G21    30.06F
SEXTON SUMMIT  SUNNY     80  34  19 VRB5G20   30.20F
GRANTS PASS    FAIR      93  30  10 N12G21    30.07F
MEDFORD        SUNNY     93  41  16 W5        30.02F SMOKE
$$

ORZ014>016-041-190000-
COLUMBIA GORGE


CITY           SKY/WX    TMP DP  RH WIND       PRES   REMARKS
TROUTDALE      MOSUNNY   82  53  36 VRB6      30.11F
HOOD RIVER     MOSUNNY   82  48  30 W9        30.05F HAZE
THE DALLES     MOSUNNY   90  46  21 NW26G35   29.97F
$$

ORZ029>031-041-044-049-050-061>064-502-503-505>511-190000-
EASTERN OREGON


CITY           SKY/WX    TMP DP  RH WIND       PRES   REMARKS
MADRAS         SUNNY     88  32  13 NW16G24   30.08F
REDMOND        MOSUNNY   87  23   9 CALM      30.10F
BEND           SUNNY     88  30  12 W9        30.12F
PRINEVILLE     SUNNY     84  27  12 CALM      30.11F
KLAMATH FALLS  MOSUNNY   88  38  17 N9        30.13F HAZE
LAKEVIEW       SUNNY    N/A N/A N/A S8        30.15F
HERMISTON      SUNNY     94  44  17 NW7       29.93F HX  90
PENDLETON      SUNNY     92  38  15 W18G25    29.97F
JOHN DAY       SUNNY     89  24   9 CALM      30.10F
MEACHAM        SUNNY     84  21  10 VRB6      30.11F
LA GRANDE      NOT AVBL
BAKER CITY     SUNNY     93  34  12 NW8       30.06F
BURNS          SUNNY     91  22   8 S10       30.10F
ROME             N/A     92  25   9 MISG      30.07F
ONTARIO        SUNNY     93  39  15 VRB5      29.98F
$$




USA.gov is the U.S. government's official web portal to all federal, state and local government web resources and services.